This is the latest recevied weather packets stored in our database for station/object R1ZCU-14. If no packets are shown the sender has not sent any weather packets the latest 10 day(s).
| Time | Temp. | Humidity | Pressure | Rain* | Wind** | Luminosity | Snow |
|---|---|---|---|---|---|---|---|
| 1777987326 | 5° C | 74% | 990 hPa | - | - | - | - |
| 1777986725 | 5.56° C | 74% | 989.9 hPa | - | - | - | - |
| 1777986125 | 5.56° C | 71% | 989.8 hPa | - | - | - | - |
| 1777985524 | 5.56° C | 70% | 989.8 hPa | - | - | - | - |
| 1777984924 | 5.56° C | 70% | 989.5 hPa | - | - | - | - |
| 1777984323 | 5.56° C | 71% | 989.6 hPa | - | - | - | - |
| 1777983723 | 6.11° C | 68% | 989.6 hPa | - | - | - | - |
| 1777983122 | 6.67° C | 66% | 989.3 hPa | - | - | - | - |
| 1777982522 | 6.67° C | 62% | 989.2 hPa | - | - | - | - |
| 1777981921 | 7.22° C | 59% | 989.2 hPa | - | - | - | - |
| 1777981321 | 7.22° C | 58% | 989.1 hPa | - | - | - | - |
| 1777980720 | 7.22° C | 58% | 989 hPa | - | - | - | - |
| 1777980120 | 7.22° C | 57% | 988.8 hPa | - | - | - | - |
| 1777979519 | 7.78° C | 55% | 988.7 hPa | - | - | - | - |
| 1777978919 | 7.78° C | 53% | 988.5 hPa | - | - | - | - |
| 1777978318 | 7.78° C | 53% | 988.5 hPa | - | - | - | - |
| 1777977718 | 7.78° C | 52% | 988.4 hPa | - | - | - | - |
| 1777977117 | 7.78° C | 50% | 988.3 hPa | - | - | - | - |
| 1777976517 | 8.33° C | 48% | 988.2 hPa | - | - | - | - |
| 1777975916 | 8.33° C | 46% | 988.3 hPa | - | - | - | - |
| 1777975316 | 7.78° C | 45% | 988.2 hPa | - | - | - | - |
| 1777974716 | 8.33° C | 44% | 988.1 hPa | - | - | - | - |
| 1777974115 | 8.89° C | 42% | 988.1 hPa | - | - | - | - |
| 1777973514 | 8.89° C | 39% | 987.9 hPa | - | - | - | - |
| 1777972914 | 10° C | 37% | 987.8 hPa | - | - | - | - |
* Rain since midnight (hover to see other rain measurements)
** Current wind speed in m/s (hover to see current wind gust speed)